Date String (YYYY-MM-DD hh:mm:ss) UTC,Instrument flags,absolute air pressure of the measurement (hPa),sample flow rate (lpm),inlet stack bypass flow (lpm),air temperature of the measurement (°C),ambient temperature measured by the external sensor (°C),aerosol sample conditioner tube jacket temperature (°C),OPC LED temperature (°C),internal box temperature (°C),relative humidity of the measurement (%),span deviation,mass concentration of particles derived from Lorenz-Mie calculation of OPC scattering (μg/m³),mass concentration of particles derived from Lorenz-Mie calculation of OPC scattering (μg/m³),mass concentration of particles derived from Lorenz-Mie calculation of OPC scattering (μg/m³)
DateTimeUTC,F1_M11,P_M11,Q1_M11,Q2_M11,T1_M11,T2_M11,T3_M11,T4_M11,T5_M11,U1_M11,ZSPAN_M11,X0_M11,X2_M11,X1_M11
2023-09-23 20:00:00,SystemResetWarning,0828.3,5.00,000.00,028.2,024.3,000.0,036.5,029.5,9.6,0000.0,0010.14,0003.38,0002.62
2023-09-23 20:01:00,SystemResetWarning,0828.3,5.02,000.00,028.1,024.6,000.0,036.5,029.4,9.6,0000.0,0010.17,0003.36,0002.60
2023-09-23 20:02:00,SystemResetWarning,0828.3,5.00,000.00,028.0,025.0,000.0,036.5,029.4,9.7,0000.0,0009.84,0003.33,0002.58
2023-09-23 20:03:00,SystemResetWarning,0828.3,5.00,000.00,028.0,025.4,000.0,036.5,029.5,9.7,0000.0,0009.38,0003.33,0002.58
2023-09-23 20:04:00,SystemResetWarning,0828.2,5.00,000.00,028.1,025.8,000.0,036.5,029.6,9.1,0000.0,0008.39,0003.33,0002.56
2023-09-23 20:05:00,SystemResetWarning,0828.2,5.00,000.00,028.1,026.1,000.0,036.5,029.7,9.1,0000.0,0008.32,0003.31,0002.54
2023-09-23 20:06:00,SystemResetWarning,0828.2,4.98,000.00,028.1,026.4,000.0,036.5,029.8,9.0,0000.0,0008.36,0003.27,0002.54
2023-09-23 20:07:00,SystemResetWarning,0828.3,4.99,000.00,028.2,026.7,000.0,036.5,029.8,9.3,0000.0,0009.33,0003.27,0002.53
2023-09-23 20:08:00,SystemResetWarning,0828.2,5.01,000.00,028.2,026.9,000.0,036.5,029.9,9.1,0000.0,0009.57,0003.23,0002.52
2023-09-23 20:09:00,SystemResetWarning,0828.2,5.00,000.00,028.2,027.1,000.0,036.5,030.0,9.1,0000.0,0009.42,0003.21,0002.51
2023-09-23 20:10:00,SystemResetWarning,0828.2,5.01,000.00,028.3,027.2,000.0,036.5,030.0,9.0,0000.0,0009.61,0003.22,0002.50
2023-09-23 20:11:00,SystemResetWarning,0828.2,5.00,000.00,028.3,027.4,000.0,036.6,030.1,9.0,0000.0,0009.37,0003.21,0002.49
2023-09-23 20:12:00,SystemResetWarning,0828.3,5.00,000.00,028.4,027.5,000.0,036.6,030.2,9.1,0000.0,0009.06,0003.19,0002.48
2023-09-23 20:13:00,SystemResetWarning,0828.2,4.98,000.00,028.4,026.6,000.0,036.6,030.0,9.0,0000.0,0009.14,0003.22,0002.49
2023-09-23 20:14:00,SystemResetWarning,0828.1,5.00,000.00,028.3,024.8,000.0,036.5,029.5,8.8,0000.0,0008.88,0003.17,0002.49
2023-09-23 20:15:00,SystemResetWarning,0828.1,5.01,000.00,028.2,024.3,000.0,036.5,029.4,9.0,0000.0,0008.96,0003.17,0002.47
2023-09-23 20:16:00,SystemResetWarning,0828.1,5.00,000.00,028.1,024.6,000.0,036.4,029.4,9.3,0000.0,0008.91,0003.15,0002.46
2023-09-23 20:17:00,SystemResetWarning,0828.1,4.99,000.00,028.0,024.9,000.0,036.4,029.4,9.4,0000.0,0008.81,0003.15,0002.45
2023-09-23 20:18:00,SystemResetWarning,0828.1,5.00,000.00,028.0,025.3,000.0,036.4,029.5,9.2,0000.0,0007.21,0003.13,0002.44
2023-09-23 20:19:00,SystemResetWarning,0828.1,5.01,000.00,028.0,025.7,000.0,036.4,029.6,9.1,0000.0,0006.46,0003.14,0002.43
2023-09-23 20:20:00,SystemResetWarning,0828.0,5.00,000.00,028.1,026.1,000.0,036.5,029.7,9.3,0000.0,0006.92,0003.14,0002.44
2023-09-23 20:21:00,SystemResetWarning,0828.1,5.00,000.00,028.1,026.4,000.0,036.5,029.7,9.3,0000.0,0007.90,0003.14,0002.44
2023-09-23 20:22:00,SystemResetWarning,0828.0,5.00,000.00,028.2,026.7,000.0,036.5,029.8,9.6,0000.0,0008.07,0003.16,0002.44
2023-09-23 20:23:00,SystemResetWarning,0828.0,4.99,000.00,028.2,026.9,000.0,036.5,029.9,9.4,0000.0,0008.13,0003.15,0002.44
2023-09-23 20:24:00,SystemResetWarning,0827.9,4.99,000.00,028.2,027.1,000.0,036.5,030.0,9.2,0000.0,0008.01,0003.10,0002.41
2023-09-23 20:25:00,SystemResetWarning,0828.0,4.99,000.00,028.3,027.2,000.0,036.5,030.0,9.0,0000.0,0008.08,0003.10,0002.39
2023-09-23 20:26:00,SystemResetWarning,0828.0,5.00,000.00,028.4,027.4,000.0,036.6,030.1,9.1,0000.0,0007.90,0003.05,0002.37
2023-09-23 20:27:00,SystemResetWarning,0828.1,5.01,000.00,028.4,027.5,000.0,036.6,030.2,9.3,0000.0,0008.02,0003.06,0002.36
2023-09-23 20:28:00,SystemResetWarning,0828.0,5.00,000.00,028.4,027.4,000.0,036.6,030.2,9.7,0000.0,0008.15,0003.08,0002.34
2023-09-23 20:29:00,SystemResetWarning,0828.1,4.99,000.00,028.4,025.7,000.0,036.6,029.8,9.6,0000.0,0008.19,0003.11,0002.32
2023-09-23 20:30:00,SystemResetWarning,0828.0,5.02,000.00,028.3,024.4,000.0,036.5,029.5,9.3,0000.0,0008.55,0003.12,0002.31
2023-09-23 20:31:00,SystemResetWarning,0827.9,5.01,000.00,028.2,024.5,000.0,036.5,029.5,9.4,0000.0,0008.64,0003.12,0002.30
2023-09-23 20:32:00,SystemResetWarning,0827.9,5.00,000.00,028.1,024.8,000.0,036.5,029.4,9.4,0000.0,0007.79,0003.11,0002.28
2023-09-23 20:33:00,SystemResetWarning,0827.9,5.00,000.00,028.1,025.2,000.0,036.5,029.5,9.3,0000.0,0007.43,0003.05,0002.26
2023-09-23 20:34:00,SystemResetWarning,0828.0,5.00,000.00,028.1,025.6,000.0,036.5,029.6,9.5,0000.0,0007.86,0003.04,0002.25
2023-09-23 20:35:00,SystemResetWarning,0828.0,5.00,000.00,028.1,026.0,000.0,036.5,029.6,9.6,0000.0,0007.85,0003.03,0002.23
2023-09-23 20:36:00,SystemResetWarning,0828.0,5.00,000.00,028.1,026.3,000.0,036.5,029.7,9.6,0000.0,0007.77,0003.00,0002.22
2023-09-23 20:37:00,SystemResetWarning,0827.9,5.00,000.00,028.2,026.6,000.0,036.5,029.8,9.7,0000.0,0007.80,0003.01,0002.23
2023-09-23 20:38:00,SystemResetWarning,0827.9,5.00,000.00,028.2,026.9,000.0,036.5,029.9,9.4,0000.0,0007.92,0002.97,0002.22
2023-09-23 20:39:00,SystemResetWarning,0828.0,5.00,000.00,028.3,027.1,000.0,036.5,030.0,9.3,0000.0,0008.12,0002.89,0002.21
2023-09-23 20:40:00,SystemResetWarning,0828.1,5.00,000.00,028.3,027.2,000.0,036.6,030.0,9.4,0000.0,0008.04,0002.81,0002.19
2023-09-23 20:41:00,SystemResetWarning,0828.1,5.00,000.00,028.4,026.9,000.0,036.6,030.0,9.7,0000.0,0007.52,0002.74,0002.16
2023-09-23 20:42:00,SystemResetWarning,0828.0,5.00,000.00,028.3,025.1,000.0,036.5,029.6,9.6,0000.0,0006.77,0002.69,0002.14
2023-09-23 20:43:00,SystemResetWarning,0827.9,5.01,000.00,028.2,024.3,000.0,036.4,029.5,9.5,0000.0,0006.74,0002.66,0002.13
2023-09-23 20:44:00,SystemResetWarning,0827.9,5.01,000.00,028.1,024.5,000.0,036.4,029.4,9.5,0000.0,0006.92,0002.67,0002.13
2023-09-23 20:45:00,SystemResetWarning,0827.9,5.00,000.00,028.0,024.8,000.0,036.4,029.4,9.5,0000.0,0005.60,0002.61,0002.12
2023-09-23 20:46:00,SystemResetWarning,0827.9,5.00,000.00,028.0,025.2,000.0,036.4,029.4,9.3,0000.0,0005.45,0002.57,0002.10
2023-09-23 20:47:00,SystemResetWarning,0828.1,5.00,000.00,028.0,025.6,000.0,036.4,029.5,9.3,0000.0,0006.17,0002.53,0002.08
2023-09-23 20:48:00,SystemResetWarning,0828.0,4.99,000.00,028.0,026.0,000.0,036.4,029.6,8.9,0000.0,0006.43,0002.51,0002.08
2023-09-23 20:49:00,SystemResetWarning,0828.0,4.99,000.00,028.1,026.3,000.0,036.4,029.7,8.9,0000.0,0005.96,0002.48,0002.07
2023-09-23 20:50:00,SystemResetWarning,0828.0,5.00,000.00,028.1,026.6,000.0,036.4,029.8,8.9,0000.0,0004.97,0002.50,0002.09
2023-09-23 20:51:00,SystemResetWarning,0828.1,5.00,000.00,028.2,026.8,000.0,036.4,029.8,9.0,0000.0,0005.40,0002.52,0002.10
2023-09-23 20:52:00,SystemResetWarning,0828.1,5.00,000.00,028.2,027.0,000.0,036.5,029.9,8.9,0000.0,0006.21,0002.47,0002.09
2023-09-23 20:53:00,SystemResetWarning,0828.1,5.00,000.00,028.3,027.2,000.0,036.5,030.0,8.9,0000.0,0006.37,0002.51,0002.11
2023-09-23 20:54:00,SystemResetWarning,0828.1,5.00,000.00,028.3,027.2,000.0,036.5,030.0,9.0,0000.0,0006.18,0002.49,0002.11
2023-09-23 20:55:00,SystemResetWarning,0828.0,4.98,000.00,028.3,025.8,000.0,036.5,029.7,9.6,0000.0,0006.27,0002.53,0002.11
2023-09-23 20:56:00,SystemResetWarning,0827.9,5.01,000.00,028.1,024.4,000.0,036.4,029.4,9.3,0000.0,0006.42,0002.55,0002.12
2023-09-23 20:57:00,SystemResetWarning,0827.8,5.01,000.00,028.1,024.3,000.0,036.4,029.4,9.7,0000.0,0006.70,0002.57,0002.14
2023-09-23 20:58:00,SystemResetWarning,0827.8,5.00,000.00,028.0,024.7,000.0,036.4,029.3,9.6,0000.0,0005.96,0002.60,0002.16
2023-09-23 20:59:00,SystemResetWarning,0827.8,4.99,000.00,027.9,025.1,000.0,036.4,029.4,9.7,0000.0,0005.63,0002.61,0002.16
